Location: *
(34.6903°N, 135.5184°E)
Time: 05:53:34
(UTC+00:00)

Cosmos 1536 - Pass Details

Date: 22 September 2019
Orbit: 540 x 559 km, 82.5° (Epoch: 16 October)

Event Time Altitude Azimuth Distance (km) Brightness Sun altitude
Rises 19:22:16 0° 345° (NNW) 2,703 6.3 -17.9°
Reaches altitude 10° 19:24:30 10° 338° (NNW) 1,808 5.3 -17.5°
Maximum altitude 19:28:14 40° 268° (W) 801 3.1 -16.7°
Drops below altitude 10° 19:31:57 10° 197° (SSW) 1,800 5.2 -16.0°
Sets 19:34:11 0° 190° (S) 2,691 6.1 -15.5°
